Weather History for Brownsville, TX

Change the Weather History Date:

Wednesday, November 6, 2013

  Actual Average Record
Temperature  
Mean Temperature 79 °F 72 °F  
Max Temperature 86 °F 82 °F 94 °F (1963)
Min Temperature 72 °F 62 °F 43 °F (1959)
Degree Days  
Heating Degree Days 0 1  
Month to date heating degree days 0 6  
Since 1 July heating degree days 0 10  
Cooling Degree Days 14 8  
Month to date cooling degree days 49 49  
Year to date cooling degree days 3996 3814  
Growing Degree Days 28 (Base 50)    
Moisture  
Dew Point 74 °F    
Average Humidity 81    
Maximum Humidity 100    
Minimum Humidity 61    
Precipitation  
Precipitation 0.11 in 0.07 in 1.30 in (1899)
Month to date precipitation 0.31 0.48  
Year to date precipitation 23.87 24.95  
Sea Level Pressure  
Sea Level Pressure 30.02 in    
Wind  
Wind Speed 6 mph (East)    
Max Wind Speed 17 mph    
Max Gust Speed 24 mph    
Visibility 10 miles    
Events Rain , Thunderstorm    
T = Trace of Precipitation, MM = Missing Value Source: NWS Daily Summary

Daily Weather History Graph

Daily Weather History Graph

Search for Another Location

Airport:

Trip Planner

Search our weather history database for the weather conditions in past years. The results will help you decide how hot, cold, wet, or windy it might be!

Date:

Astronomy

Nov. 06, 2013 Rise Set
Actual Time 6:41 AM CST 5:44 PM CST
Civil Twilight 6:17 AM CST 6:08 PM CST
Nautical Twilight 5:50 AM CST 6:36 PM CST
Astronomical Twilight 5:23 AM CST 7:03 PM CST
Moon 9:50 AM CST (11/6) 8:57 PM CST (11/6)
Length of Visible Light 11h 50m
Length of Day
11h 02m
Waxing Crescent, 14% of the Moon is Illuminated
Nov 6
Waxing Crescent
Nov 9
First Quarter
Nov 17
Full
Nov 25
Last Quarter
Dec 2
New

Hourly Weather History & Observations

Time (CST) Temp. Heat Index Dew Point Humidity Pressure Visibility Wind Dir Wind Speed Gust Speed Precip Events Conditions
12:53 AM 75.9 °F - 75.9 °F 100% 29.96 in 10.0 mi SE 8.1 mph - 0.00 in   Mostly Cloudy
1:05 AM 75.2 °F - 75.2 °F 100% 29.95 in 10.0 mi SE 6.9 mph - N/A   Scattered Clouds
1:53 AM 75.9 °F - 75.9 °F 100% 29.94 in 10.0 mi ESE 5.8 mph - 0.00 in Rain Light Rain
2:53 AM 75.0 °F - 75.0 °F 100% 29.94 in 10.0 mi ESE 5.8 mph - 0.00 in   Mostly Cloudy
3:53 AM 75.0 °F - 75.0 °F 100% 29.95 in 10.0 mi ESE 5.8 mph - N/A   Overcast
4:02 AM 75.2 °F - 75.2 °F 100% 29.95 in 10.0 mi ESE 4.6 mph - N/A   Overcast
4:11 AM 75.2 °F - 75.2 °F 100% 29.95 in 10.0 mi ESE 4.6 mph - N/A   Overcast
4:22 AM 75.2 °F - 75.2 °F 100% 29.95 in 10.0 mi SE 4.6 mph - N/A   Overcast
4:34 AM 75.2 °F - 75.2 °F 100% 29.95 in 10.0 mi ESE 4.6 mph - N/A   Overcast
4:53 AM 75.0 °F - 75.0 °F 100% 29.96 in 10.0 mi ESE 4.6 mph - N/A   Partly Cloudy
5:53 AM 73.9 °F - 73.9 °F 100% 29.96 in 10.0 mi ESE 4.6 mph - N/A   Clear
6:53 AM 72.0 °F - 72.0 °F 100% 29.98 in 10.0 mi East 4.6 mph - N/A   Scattered Clouds
7:53 AM 75.9 °F - 75.9 °F 100% 30.00 in 10.0 mi ESE 3.5 mph - N/A   Overcast
8:53 AM 78.1 °F - 77.0 °F 96% 30.02 in 10.0 mi SE 4.6 mph - N/A   Overcast
9:53 AM 82.9 °F 90.2 °F 75.0 °F 77% 30.03 in 10.0 mi SE 11.5 mph - N/A   Partly Cloudy
10:53 AM 84.0 °F 89.6 °F 72.0 °F 67% 30.03 in 10.0 mi SE 10.4 mph - N/A   Mostly Cloudy
11:53 AM 84.9 °F 89.4 °F 70.0 °F 61% 30.02 in 10.0 mi SSE 6.9 mph - N/A   Mostly Cloudy
12:53 PM 84.0 °F 89.0 °F 71.1 °F 65% 30.00 in 10.0 mi SSW 3.5 mph - 0.00 in Rain Light Rain
1:53 PM 84.9 °F 89.4 °F 70.0 °F 61% 29.98 in 10.0 mi SE 8.1 mph - 0.00 in   Overcast
2:53 PM 82.9 °F 88.0 °F 72.0 °F 69% 29.98 in 10.0 mi ESE 9.2 mph - 0.00 in   Overcast
3:20 PM 78.8 °F - 75.2 °F 89% 30.00 in 10.0 mi North 8.1 mph - N/A Thunderstorm Thunderstorm
3:28 PM 75.2 °F - 75.2 °F 100% 30.00 in 10.0 mi NNW 11.5 mph - N/A Thunderstorm Thunderstorm
3:49 PM 73.4 °F - 73.4 °F 100% 30.02 in 10.0 mi WNW 10.4 mph - N/A Thunderstorm Thunderstorm
3:53 PM 73.0 °F - 73.0 °F 100% 30.02 in 10.0 mi NW 9.2 mph - 0.00 in Thunderstorm Thunderstorm
4:09 PM 71.6 °F - 71.6 °F 100% 30.03 in 10.0 mi West 8.1 mph - N/A   Overcast
4:53 PM 73.0 °F - 73.0 °F 100% 30.03 in 10.0 mi WNW 5.8 mph - N/A   Mostly Cloudy
5:53 PM 73.0 °F - 73.0 °F 100% 30.03 in 10.0 mi Calm Calm - 0.09 in Rain Light Rain
6:53 PM 73.0 °F - - N/A% 30.05 in 10.0 mi North 5.8 mph - 0.00 in   Mostly Cloudy
7:53 PM 72.0 °F - - N/A% 30.08 in 10.0 mi NNE 4.6 mph - N/A   Mostly Cloudy
8:53 PM 73.0 °F - 73.0 °F 100% 30.11 in 10.0 mi NNE 4.6 mph - N/A   Scattered Clouds
9:53 PM 75.0 °F - 75.0 °F 100% 30.12 in 5.0 mi NNE 3.5 mph - N/A   Overcast
10:48 PM 75.2 °F - 75.2 °F 100% 30.13 in 10.0 mi NNE 11.5 mph - N/A   Overcast
10:53 PM 75.0 °F - 75.0 °F 100% 30.13 in 10.0 mi NNE 12.7 mph 20.7 mph N/A   Overcast
11:44 PM 73.4 °F - 73.4 °F 100% 30.14 in 10.0 mi NNE 16.1 mph - 0.00 in   Overcast
11:53 PM 73.9 °F - 73.9 °F 100% 30.14 in 8.0 mi NNE 10.4 mph 23.0 mph 0.00 in Rain Rain